Flag for Australia Weather past 2 weeks in Adelaide, South Australia, Australia

Now
57 °F

Clear.


Feels Like: 57 °F
Forecast: 53 / 75 °F
Wind: No wind

Location: Adelaide Airport

Current Time: Mar 30, 2015 at 3:52:50 AM

Latest Report: Mar 30, 2015 at 3:00 AM


Visibility: 10 mi

Pressure: 30.21 "Hg

Humidity: 77%

Dew point: 50 °F

Location of AdelaideLocation

Historic Weather in Adelaide — Graph

°F

Adelaide temperature yesterday

Maximum temperature yesterday: 75 °F (at 5:30 PM)
Minimum temperature yesterday: 55 °F (at 1:30 AM)
Average temperature yesterday: 65 °F

Past Weeks' High & Low Weather Summary

 TemperatureHumidityPressure
High90 °F (Mar 16, 3:00 PM)94% (Mar 25, 6:30 PM)30.39 "Hg (Mar 25, 6:30 PM)
Low48 °F (Mar 28, 5:00 AM)10% (Mar 22, 11:30 PM)29.56 "Hg (Mar 17, 12:00 AM)
Average66 °F55%30.03 "Hg
* Reported Mar 15 2:30 AM — Mar 30 2:30 AM, Adelaide, Weather by CustomWeather, © 2015

Note: Actual official high and low records may vary slightly from our data, if they occured in-between our weather recording intervals... More about our weather records

Advertising

Adelaide weather history for previous 24 hours

 ConditionsComfort  
Time TempWeatherWind HumidityBarometerVisibility
2:30 AM
Mon, Mar 30
55 °FClear.5 mph77%30.21 "Hg10 mi
2:00 AM57 °FClear.No wind77%30.21 "Hg10 mi
1:30 AM57 °FClear.No wind77%30.21 "Hg10 mi
12:30 AM61 °FCool.5 mph72%30.21 "HgN/A
12:00 AM61 °FClear.6 mph72%30.21 "Hg10 mi
11:30 PM
Sun, Mar 29
63 °FClear.6 mph68%30.21 "Hg10 mi
11:00 PM64 °FClear.6 mph68%30.21 "Hg10 mi
10:30 PM64 °FClear.7 mph68%30.21 "Hg10 mi
10:00 PM66 °FClear.5 mph68%30.21 "Hg10 mi
9:30 PM66 °FClear.6 mph68%30.21 "Hg10 mi
9:00 PM66 °FClear.7 mph68%30.18 "Hg10 mi
8:30 PM68 °FClear.6 mph64%30.18 "Hg10 mi
8:00 PM68 °FClear.6 mph64%30.18 "Hg10 mi
7:30 PM68 °FSunny.7 mph64%30.18 "Hg10 mi
7:00 PM68 °FSunny.7 mph64%30.18 "Hg10 mi
6:30 PM70 °FSunny.7 mph53%30.15 "Hg10 mi
6:00 PM72 °FSunny.7 mph38%30.15 "Hg10 mi
5:30 PM75 °FSunny.6 mph34%30.15 "Hg10 mi
5:00 PM72 °FSunny.7 mph44%30.15 "Hg10 mi
4:30 PM72 °FSunny.8 mph44%30.15 "Hg10 mi
4:00 PM72 °FSunny.10 mph50%30.15 "Hg10 mi
3:30 PM72 °FSunny.9 mph44%30.15 "Hg10 mi
3:00 PM72 °FSunny.9 mph44%30.15 "Hg10 mi
2:30 PM73 °FSunny.9 mph41%30.18 "Hg10 mi
2:00 PM73 °FSunny.10 mph38%30.18 "Hg10 mi
1:30 PM73 °FSunny.8 mph36%30.18 "Hg10 mi
1:00 PM72 °FSunny.8 mph38%30.18 "Hg10 mi
12:30 PM72 °FSunny.9 mph36%30.18 "Hg10 mi
12:00 PM72 °FSunny.8 mph38%30.21 "Hg10 mi
11:30 AM72 °FSunny.6 mph38%30.21 "Hg10 mi
11:00 AM70 °FSunny.6 mph40%30.21 "Hg10 mi
10:30 AM70 °FSunny.6 mph43%30.21 "Hg10 mi
10:00 AM68 °FSunny.8 mph43%30.21 "Hg10 mi
9:30 AM64 °FSunny.6 mph52%30.21 "Hg10 mi
9:00 AM61 °FSunny.3 mph63%30.18 "Hg10 mi
8:30 AM59 °FSunny.5 mph68%30.18 "Hg10 mi
8:00 AM57 °FSunny.6 mph72%30.18 "Hg10 mi
7:30 AM55 °FClear.5 mph72%30.18 "Hg10 mi
7:00 AM57 °FClear.No wind72%30.15 "Hg10 mi
6:30 AM59 °FClear.3 mph63%30.15 "Hg10 mi
6:00 AM59 °FClear.No wind68%30.15 "Hg10 mi
5:30 AM59 °FClear.2 mph63%30.12 "Hg10 mi
4:30 AM59 °FClear.No wind63%30.12 "Hg10 mi
3:30 AM57 °FClear.3 mph63%30.12 "Hg10 mi
3:00 AM57 °FClear.3 mph63%30.15 "Hg10 mi
Weather by CustomWeather, © 2015

See weather overviewHow to use our weather pages